Lake Piru Weather Center

Moon Phase Calendar



Lake Piru Water Level
Online Cameras

 


      

Current Conditions in Piru
4/25/2024 1:45:04 AM

53°F
Feels Like 52
Clouds
Humidity
86%
Pressure
30"
Wind
2.9 mph (SSE)
Dew Point
49°F
UV Index
0/10 (Low)
Visibility
6 mi

Hourly Forecast

Date & Time Thu, Apr 25
1:00 AM
Thu, Apr 25
2:00 AM
Thu, Apr 25
3:00 AM
Thu, Apr 25
4:00 AM
Thu, Apr 25
5:00 AM
Thu, Apr 25
6:00 AM
Thu, Apr 25
7:00 AM
Thu, Apr 25
8:00 AM
Thu, Apr 25
9:00 AM
Thu, Apr 25
10:00 AM
Thu, Apr 25
11:00 AM
Thu, Apr 25
12:00 PM
Thu, Apr 25
1:00 PM
Thu, Apr 25
2:00 PM
Thu, Apr 25
3:00 PM
Thu, Apr 25
4:00 PM
Thu, Apr 25
5:00 PM
Thu, Apr 25
6:00 PM
Thu, Apr 25
7:00 PM
Thu, Apr 25
8:00 PM
Thu, Apr 25
9:00 PM
Thu, Apr 25
10:00 PM
Thu, Apr 25
11:00 PM
Fri, Apr 26
12:00 AM
Fri, Apr 26
1:00 AM
Fri, Apr 26
2:00 AM
Fri, Apr 26
3:00 AM
Fri, Apr 26
4:00 AM
Fri, Apr 26
5:00 AM
Fri, Apr 26
6:00 AM
Fri, Apr 26
7:00 AM
Fri, Apr 26
8:00 AM
Fri, Apr 26
9:00 AM
Fri, Apr 26
10:00 AM
Fri, Apr 26
11:00 AM
Fri, Apr 26
12:00 PM
Fri, Apr 26
1:00 PM
Fri, Apr 26
2:00 PM
Fri, Apr 26
3:00 PM
Fri, Apr 26
4:00 PM
Fri, Apr 26
5:00 PM
Fri, Apr 26
6:00 PM
Fri, Apr 26
7:00 PM
Fri, Apr 26
8:00 PM
Fri, Apr 26
9:00 PM
Fri, Apr 26
10:00 PM
Fri, Apr 26
11:00 PM
Sat, Apr 27
12:00 AM
Condition
Clouds

Clouds

Clouds

Clouds

Clouds

Clouds

Clouds

Clouds

Clouds

Clouds

Clouds

Clouds

Clouds

Clouds

Clouds

Clouds

Clouds

Clouds

Clouds

Clouds

Clouds

Clouds

Clouds

Clouds

Clouds

Clouds

Clouds

Clouds

Clouds

Clouds

Clouds

Clouds

Clouds

Clouds

Clouds

Clouds

Clouds

Clouds

Clouds

Clouds

Clouds

Clouds

Clouds

Clear

Clear

Clear

Clear

Clear
Temperature 53°F53°F53°F53°F53°F52°F53°F55°F57°F58°F58°F59°F61°F62°F61°F61°F60°F58°F57°F53°F52°F51°F51°F51°F51°F50°F50°F50°F51°F50°F52°F56°F58°F61°F64°F66°F68°F69°F69°F70°F71°F69°F64°F57°F55°F53°F53°F52°F
Feels Like 52°F52°F52°F52°F52°F51°F52°F54°F56°F57°F57°F58°F60°F61°F60°F59°F59°F57°F56°F53°F51°F50°F50°F50°F50°F49°F50°F50°F50°F50°F51°F55°F57°F60°F63°F64°F67°F68°F68°F69°F69°F67°F62°F55°F53°F52°F51°F51°F
Cloudiness 100%100%100%100%100%100%100%100%100%93%94%100%97%98%98%99%99%100%76%53%40%36%47%38%23%18%17%20%28%62%55%56%65%69%70%100%91%85%80%71%60%25%12%8%6%5%5%1%
Visibility 6 mi6 mi6 mi6 mi6 mi6 mi6 mi6 mi6 mi6 mi6 mi6 mi6 mi6 mi6 mi6 mi6 mi6 mi6 mi6 mi6 mi6 mi6 mi6 mi6 mi6 mi6 mi6 mi6 mi6 mi6 mi6 mi6 mi6 mi6 mi6 mi6 mi6 mi6 mi6 mi6 mi6 mi6 mi6 mi6 mi6 mi6 mi6 mi
Precipitation 0%0%0%0%0%0%0%0%0%0%0%0%0%0%0%0%0%0%0%0%0%0%0%0%0%0%0%0%0%0%0%0%0%0%0%0%0%0%0%0%0%0%0%0%0%0%0%0%
Humidity 88%86%88%89%89%90%87%80%74%69%70%68%63%62%64%66%70%76%80%89%92%92%90%91%92%93%93%93%90%91%88%76%70%63%56%54%48%45%43%38%32%32%45%59%65%69%72%70%
Dew Point 50°F49°F50°F50°F49°F49°F47°F47°F46°F46°F46°F46°F47°F47°F47°F47°F48°F48°F48°F48°F47°F47°F46°F46°F46°F46°F45°F45°F46°F45°F46°F46°F46°F46°F46°F46°F46°F45°F44°F42°F38°F37°F40°F41°F42°F41°F42°F41°F
Pressure 30"30"30"30"30"30"30.03"30.03"30.03"30.06"30.06"30.06"30.03"30"30"29.97"29.97"29.97"29.97"30"30"30"30"30"29.97"29.97"29.94"29.94"29.94"29.94"29.94"29.94"29.91"29.91"29.88"29.88"29.85"29.83"29.8"29.77"29.74"29.74"29.74"29.77"29.8"29.83"29.83"29.85"
Wind Speed 2.9 mph2.9 mph2.8 mph1.7 mph1.8 mph0.2 mph1.2 mph3.2 mph5.8 mph7.8 mph8 mph7.8 mph8.2 mph8.1 mph7.9 mph7.5 mph8.3 mph7.5 mph5.4 mph3.2 mph2.4 mph1.4 mph4 mph2.1 mph0.8 mph1.8 mph0.4 mph0.4 mph1.3 mph0.8 mph1.2 mph2.1 mph4.4 mph5.6 mph6.6 mph6.7 mph7.4 mph8 mph6.6 mph6.4 mph6 mph6.2 mph4.8 mph7.4 mph2.6 mph4.4 mph3.6 mph5.2 mph
Wind
Direction
156°
SSE
160°
SSE
169°
S
151°
SSE
197°
SSW
165°
SSE
112°
ESE
168°
SSE
168°
SSE
167°
SSE
175°
S
178°
S
186°
S
187°
S
186°
S
195°
SSW
217°
SW
228°
SW
211°
SSW
207°
SSW
203°
SSW
211°
SSW
158°
SSE
176°
S
149°
SSE
137°
SE
74°
ENE
286°
WNW
121°
ESE
122°
ESE
95°
E
151°
SSE
148°
SSE
163°
SSE
184°
S
190°
S
194°
SSW
200°
SSW
183°
S
173°
S
227°
SW
312°
NW
334°
NNW
338°
NNW

N
80°
E
46°
NE

N

Daily Forecast

Date High Low Precip. Humidity
Today
Apr 25

Clouds
62 °F
51 °F
0%
68%
Friday
Apr 26

Clouds
71 °F
50 °F
0%
54%
Saturday
Apr 27

Clear
72 °F
49 °F
0%
35%
Sunday
Apr 28

Clear
76 °F
53 °F
0%
32%
Monday
Apr 29

Clear
79 °F
55 °F
0%
32%
Tuesday
Apr 30

Clear
79 °F
58 °F
0%
33%
Wednesday
May 1

Clear
77 °F
56 °F
0%
48%
Thursday
May 2

Clear
69 °F
54 °F
0%
61%
Friday
May 3

Clear
68 °F
46 °F
0%
24%
Saturday
May 4

Clouds
70 °F
48 °F
0%
27%
Sunday
May 5

Clouds
75 °F
54 °F
0%
32%
Monday
May 6

Clear
85 °F
57 °F
0%
32%
Tuesday
May 7

Clear
85 °F
63 °F
0%
33%
Wednesday
May 8

Clouds
79 °F
60 °F
0%
51%
Thursday
May 9

Rain
73 °F
57 °F
48%
76%
Friday
May 10

Clouds
75 °F
56 °F
1%
63%

Temperature 8-14 Day Outlook



Precipitation 8-14 Day Outlook




Quick Links
Lake Piru News
Lake Piru Photos
Lake Piru Videos




About Us
Contact Us
Site Map
Search Site
Advertise With Us
   
Piru.USLakes.info
THE LAKE PIRU WEBSITE

Copyright 2024, Lakes Online
Privacy    |    Legal